IN3BXS Weather Reports


Display with metric or nautical units.
time (UTC)temp
F
wind
direction
speed
MPH
gust
MPH
rain 1hr
in
rain 24hr
in
rain mn
in
humidity
%
barometer
mb
20260507070025 50 185 0.0 4.0 0.00 0.33 0.00 37 1008.6
20260507063026 48 206 0.0 3.0 0.00 0.33 0.00 39 1009.2
20260507060025 47 131 0.0 3.0 0.00 0.33 0.00 48 1009.6
20260507053025 45 185 0.0 0.0 0.00 0.33 0.00 53 1009.9
20260507050025 44 265 0.0 2.0 0.00 0.33 0.00 55 1010.3
20260507043025 42 357 0.0 3.0 0.00 0.37 0.00 53 1009.5
20260507040025 41 357 0.0 3.0 0.00 0.37 0.00 52 1009.8
20260507033025 41 53 0.0 0.0 0.00 0.37 0.00 50 1009.9
20260507030025 42 53 0.0 0.0 0.00 0.37 0.00 51 1009.7
20260507023025 42 53 0.0 4.0 0.00 0.37 0.00 52 1009.5
20260507020025 43 320 0.0 2.0 0.00 0.37 0.00 51 1009.3
20260507013025 43 315 0.0 3.0 0.00 0.37 0.00 52 1009.3
20260507010025 43 259 0.0 0.0 0.00 0.37 0.00 51 1009.4
20260507003026 43 44 0.0 0.0 0.00 0.37 0.00 50 1009.4
20260507000025 43 44 0.0 0.0 0.00 0.37 0.00 48 1009.4
20260506233025 44 12 0.0 3.0 0.00 0.37 0.00 48 1009.2
20260506230026 44 6 0.0 0.0 0.00 0.37 0.00 45 1009.1
20260506223026 45 2 0.0 5.0 0.00 0.37 0.00 45 1008.8
20260506220026 46 41 0.0 5.0 0.00 0.37 0.37 47 1008.6
20260506213026 47 225 0.0 3.0 0.00 0.37 0.37 49 1009.5
20260506210026 46 314 0.0 5.0 0.00 0.37 0.37 49 1008.5
20260506203026 46 15 0.0 3.0 0.00 0.37 0.37 44 1008.5
20260506200026 47 314 0.0 4.0 0.04 0.37 0.37 44 1008.3
20260506193026 47 44 0.0 5.0 0.04 0.37 0.37 45 1007.1
20260506190026 47 323 0.0 0.0 0.00 0.33 0.33 43 1007.1
20260506183026 47 325 0.0 3.0 0.00 0.33 0.33 39 1007.1
20260506180026 50 248 0.0 4.0 0.00 0.33 0.33 37 1006.5
20260506173026 51 251 0.0 8.0 0.00 0.33 0.33 36 1005.0
20260506170026 52 273 0.0 6.0 0.00 0.33 0.33 37 1004.9
20260506163026 52 302 0.0 6.0 0.00 0.33 0.33 36 1004.9
20260506160026 52 217 0.0 8.0 0.00 0.33 0.33 36 1004.9
20260506150026 52 268 0.0 7.0 0.00 0.33 0.33 36 1004.8
20260506143026 50 259 0.0 11.0 0.00 0.33 0.33 36 1006.4
20260506140027 49 212 0.0 10.0 0.08 0.33 0.33 37 1006.7
20260506133026 48 271 0.0 6.0 0.25 0.33 0.33 41 1007.0
20260506130026 48 247 0.0 12.0 0.12 0.20 0.20 43 1008.1
20260506123026 53 274 0.0 8.0 0.00 0.08 0.08 37 1004.6
20260506120026 53 237 0.0 9.0 0.00 0.08 0.08 37 1004.6
20260506113026 55 243 0.0 10.0 0.00 0.08 0.08 36 1004.2
20260506110028 51 276 0.0 8.0 0.04 0.08 0.08 38 1006.2
20260506103026 52 265 0.0 10.0 0.04 0.13 0.08 36 1006.0
20260506100026 51 202 0.0 6.0 0.00 0.08 0.04 38 1006.3
20260506093026 51 282 0.0 8.0 0.00 0.08 0.04 39 1006.3
20260506090026 50 319 0.0 6.0 0.00 0.08 0.04 41 1006.4
20260506083027 50 294 0.0 3.0 0.00 0.08 0.04 38 1006.6
20260506073026 48 198 0.0 4.0 0.00 0.08 0.04 48 1006.9